Location: Newark
(10.3333°N, 37.7167°E)
Time: 00:24:33
(UTC+00:00)

LightSail 2 - Pass Details

Date: 28 January 2020
Orbit: 700 x 722 km, 24.0° (Epoch: 20 February)

Event Time Altitude Azimuth Distance (km) Brightness Sun altitude
Rises 16:11:31 0° 302° (WNW) 3,070 9.1 -10.1°
Reaches altitude 10° 16:14:06 10° 311° (NW) 2,156 8.1 -10.7°
Maximum altitude 16:18:46 36° 18° (NNE) 1,110 5.9 -11.8°
Enters shadow 16:22:01 18° 75° (ENE) 1,702 6.4 -12.6°
